Location: *
(50.3194°N, 7.1067°E)
Time: 21:53:30
(UTC+00:00)

USA 116 - Pass Details

Date: 22 September 2019
Orbit: 405 x 834 km, 97.9° (Epoch: 18 November)

Event Time Altitude Azimuth Distance (km) Brightness Sun altitude
Rises 18:22:01 0° 11° (N) 2,814 7.4 -9.0°
Reaches altitude 10° 18:24:19 10° 7° (N) 1,841 6.5 -9.3°
Maximum altitude 18:28:11 58° 289° (WNW) 597 4.3 -10.0°
Drops below altitude 10° 18:31:37 10° 210° (SSW) 1,626 6.3 -10.5°
Sets 18:33:33 0° 206° (SSW) 2,449 7.2 -10.8°
